This demonstration page uses our WeatherBlox Daily Observations layout. Learn more.

41.55636, -103.73856

Hourly Observations for December 5, 2016

Temp ( °F °C ) Dew Point ( °F °C ) Humidity (%) Winds ( mph kmh ) Pressure ( in mb ) Visibility ( mi km ) Precip ( " mm )
12:53 am 00:53 Clear 44 6.7 19 -7.2 37 37 Calm 29.58 1002 10 16.0934 0 0
1:53 am 01:53 Clear 43 6.1 19 -7.2 38 38 N 3 6 29.57 1001 10 16.0934 0 0
2:53 am 02:53 Mostly Cloudy 40 4.4 20 -6.7 45 45 NW 3 6 29.56 1001 10 16.0934 0 0
3:53 am 03:53 Clear 41 5 21 -6.1 45 45 WNW 6 9 29.55 1001 10 16.0934 0 0
4:53 am 04:53 Mostly Clear 46 7.8 22 -5.6 38 38 W 12 19 29.53 1000 10 16.0934 0 0
5:53 am 05:53 Mostly Clear 45 7.2 22 -5.6 40 40 W 9 15 29.54 1000 10 16.0934 0 0
6:53 am 06:53 Clear 45 7.2 23 -5 42 42 W 10 17 29.53 1000 10 16.0934 0 0
7:53 am 07:53 Sunny 43 6.1 22 -5.6 43 43 NW 8 13 29.58 1002 10 16.0934 0 0
8:53 am 08:53 Sunny 47 8.3 23 -5 39 39 W 12 19 29.55 1001 10 16.0934 0 0
9:53 am 09:53 Partly Cloudy 47 8.3 25 -3.9 42 42 W 25 41 29.6 1002 8 12.87472 0 0
10:28 am 10:28 Sunny 43 6 25 -4 49 49 NNW 20 31 29.65 1004 10 16.0934 0 0
10:53 am 10:53 Sunny 44 6.7 25 -3.9 47 47 NW 17 28 29.62 1003 10 16.0934 0 0
11:53 am 11:53 Sunny 40 4.4 24 -4.4 53 53 NW 25 41 29.65 1004 10 16.0934 0 0
12:53 pm 12:53 Mostly Cloudy 32 0 19 -7.2 59 59 NNW 28 44 29.73 1007 10 16.0934 0 0
1:53 pm 13:53 Cloudy 32 0 15 -9.4 50 50 NW 28 44 29.79 1009 10 16.0934 0 0.0254
2:53 pm 14:53 Partly Cloudy 29 -1.7 11 -11.7 47 47 NW 26 43 29.86 1011 10 16.0934 0 0
3:53 pm 15:53 Sunny 26 -3.3 14 -10 60 60 NW 21 33 29.89 1012 10 16.0934 0 0
4:53 pm 16:53 Clear 23 -5 11 -11.7 60 60 NW 16 26 29.91 1013 10 16.0934 0 0
5:53 pm 17:53 Mostly Cloudy 22 -5.6 9 -12.8 57 57 WNW 15 24 29.96 1015 10 16.0934 0 0
6:53 pm 18:53 Clear 18 -7.8 9 -12.8 68 68 WNW 9 15 29.98 1015 10 16.0934 0 0
7:53 pm 19:53 Clear 20 -6.7 10 -12.2 65 65 WNW 13 20 30 1016 10 16.0934 0 0
8:53 pm 20:53 Clear 19 -7.2 9 -12.8 65 65 W 13 20 30 1016 10 16.0934 0 0
9:53 pm 21:53 Clear 18 -8 7 -14 62 62 WNW 16 26 30.18 1022 10 16.0934 0 0
10:53 pm 22:53 Clear 16 -8.9 5 -15 62 62 WNW 17 28 30.04 1017 10 16.0934 0 0
11:53 pm 23:53 Clear 15 -9.4 4 -15.6 61 61 WNW 12 19 30.06 1018 10 16.0934 0 0

Powered by AerisWeather